This demonstration page uses our WeatherBlox Daily Observations layout. Learn more.

Left ArrowRight Arrow

36.17497, -115.13722

Hourly Observations for January 5, 2018

Temp ( °F °C ) Dew Point ( °F °C ) Humidity (%) Winds ( mph kmh ) Pressure ( in mb ) Visibility ( mi km ) Precip ( " mm )
12:53 am 00:53 Clear 46 7.8 12 -11.1 25 25 N 7 11 30.23 1024 10 16 N/A
1:53 am 01:53 Clear 48 8.9 12 -11.1 23 23 WNW 7 11 30.24 1024 10 16 N/A
2:53 am 02:53 Clear 46 7.8 11 -11.7 24 24 N N/A 30.25 1024 10 16 N/A
3:53 am 03:53 Clear 44 6.7 15 -9.4 31 31 N N/A 30.25 1024 10 16 N/A
4:53 am 04:53 Clear 43 6.1 14 -10 31 31 NNW 3 6 30.24 1024 10 16 N/A
5:53 am 05:53 Clear 41 5 15 -9.4 35 35 WNW 7 11 30.25 1025 10 16 N/A
6:53 am 06:53 Sunny 42 5.6 14 -10 32 32 NNW 5 7 30.26 1025 10 16 N/A
7:53 am 07:53 Sunny 44 6.7 14 -10 30 30 N 5 7 30.28 1025 10 16 N/A
8:53 am 08:53 Sunny 52 11.1 16 -8.9 24 24 N 5 7 30.29 1026 10 16 N/A
9:53 am 09:53 Sunny 58 14.4 10 -12.2 15 15 N N/A 30.30 1026 10 16 N/A
10:53 am 10:53 Sunny 59 15 7 -13.9 12 12 N N/A 30.29 1026 10 16 N/A
11:53 am 11:53 Sunny 61 16.1 6 -14.4 11 11 N N/A 30.27 1025 10 16 N/A
12:53 pm 12:53 Sunny 64 17.8 5 -15 9 9 VRB 5 7 30.24 1024 10 16 N/A
1:53 pm 13:53 Sunny 64 17.8 6 -14.4 10 10 N N/A 30.22 1023 10 16 N/A
2:53 pm 14:53 Sunny 66 18.9 9 -12.8 10 10 E 3 6 30.21 1023 10 16 N/A
3:53 pm 15:53 Sunny 65 18.3 10 -12.2 11 11 N N/A 30.21 1023 10 16 N/A
4:53 pm 16:53 Clear 64 17.8 11 -11.7 12 12 N N/A 30.21 1023 10 16 N/A
5:53 pm 17:53 Clear 58 14.4 15 -9.4 18 18 WNW 3 6 30.23 1024 10 16 N/A
6:53 pm 18:53 Clear 54 12.2 19 -7.2 25 25 NW 5 7 30.26 1025 10 16 N/A
7:53 pm 19:53 Clear 54 12.2 19 -7.2 25 25 NW 6 9 30.27 1025 10 16 N/A
8:53 pm 20:53 Clear 52 11.1 19 -7.2 27 27 NW 6 9 30.25 1024 10 16 N/A
9:53 pm 21:53 Clear 52 11.1 22 -5.6 31 31 N N/A 30.24 1024 10 16 N/A
10:53 pm 22:53 Clear 50 10 21 -6.1 32 32 NW 3 6 30.24 1024 10 16 N/A
11:53 pm 23:53 Clear 51 10.6 23 -5 33 33 N 6 9 30.24 1024 10 16 N/A

Powered by AerisWeather